User: anonymous   Login
Location: Boiro
(42.6475°N, 8.8834°W)
Time: 22:12:10
(UTC+01:00)
Language:

AO-27 - Orbit

View from above orbital plane
View from above orbital plane
View from above satellite
View from above satellite

Ground track
Ground track

The orbit data is extracted from the following two-line orbital elements,

1 22825U 93061C   22022.57382800  .00000008  00000-0  21140-4 0  9999
2 22825  98.9034  50.4040 0009421 114.3547 245.8619 14.30140708477302
Epoch (UTC): 22 January 2022 13:46:18
Eccentricity: 0.0009421
inclination: 98.9034°
perigee height: 784 km
apogee height: 798 km
right ascension of ascending node: 50.4040°
argument of perigee: 114.3547°
revolutions per day: 14.30140708
mean anomaly at epoch: 245.8619°
orbit number at epoch: 47730

The dashed part of the orbit path shows where the satellite is in the earth's shadow,  

DLR